Regional Weather Roundup
Issued by NWS

Home | Current Version | Previous Version | Graphics & Text | Print | Product List | Glossary On
Versions: 1 2 3 4 5 6 7 8 9 10 11 12 13 14 15 16 17 18 19 20 21 22 23 24 25 26 27 28 29 30 31 32 33 34 35 36 37 38 39 40 41 42 43 44 45 46 47 48 49 50
300
ASUS45 KCYS 230510
RWRWY

WYOMING REGIONAL WEATHER ROUNDUP
NATIONAL WEATHER SERVICE CHEYENNE WY
1100 PM MDT SUN OCT 22 2017

NOTE:  "FAIR" INDICATES FEW OR NO CLOUDS BELOW 12,000 FEET
WITH NO SIGNIFICANT WEATHER AND/OR OBSTRUCTIONS TO VISIBILITY.

WYZ001-230600-
YELLOWSTONE NATIONAL PARK

CITY           SKY/WX    TMP DP  RH WIND       PRES   REMARKS
LK YELLOWSTONE   N/A     34  31  88 VRB6      30.32R WCI  29
W YELLOWSTONE  NOT AVBL

$$
WYZ002>013-054>058-071-098>099-230600-
NORTHERN WYOMING

CITY           SKY/WX    TMP DP  RH WIND       PRES   REMARKS
JACKSON        MOCLDY    47  32  56 W23G35    30.29S
CODY           LGT RAIN  46  38  73 N6        30.20R
GREYBULL       CLOUDY    53  29  39 W17G26    30.17R
WORLAND        FAIR      50  38  63 N14G22    30.13R
SHERIDAN       CLOUDY    51  34  52 NW25G36   30.12R
BUFFALO        FAIR      47  32  56 N25G39    30.11R
GILLETTE       CLOUDY    49  37  63 NW13G25   30.07S
HULETT         FAIR      52  34  50 W10       30.05R
NEWCASTLE      LGT RAIN  46  36  66 N20G30    30.07R

$$
WYZ014>020-022>026-101>103-230600-
CENTRAL WYOMING

CITY           SKY/WX    TMP DP  RH WIND       PRES   REMARKS
BIG PINEY      CLOUDY    46  31  55 N3        30.35F
PINEDALE       CLOUDY    43  32  65 W6        30.37S
DUBOIS         LGT RAIN  37  34  87 NW9       30.25R WCI  31
LANDER         FAIR      49  29  46 S9        30.16R
RIVERTON       MOCLDY    49  30  48 N12       30.19R
CASPER         MOCLDY    49  30  48 SW17      30.16R
DOUGLAS        FAIR      56  30  37 NW18G26   30.09R

$$
WYZ021-027>030-104>119-230600-
SOUTHERN WYOMING

CITY           SKY/WX    TMP DP  RH WIND       PRES   REMARKS
EVANSTON       CLOUDY    49  28  44 SW12      30.45R
KEMMERER       FAIR      45  28  53 W22G28    30.41R
FORT BRIDGER   CLOUDY    51  28  39 W20G28    30.43S
ROCK SPRINGS   CLOUDY    49  25  39 W20G28    30.37R
DIXON          CLOUDY    48  29  48 W7        30.40S
RAWLINS        FAIR      49  25  39 W39G48    30.26F
SARATOGA       CLOUDY    48  28  46 W17G24    30.34S
LARAMIE        FAIR      49  27  42 W21       30.25S
CHEYENNE       FAIR      54  26  34 VRB3      30.18R
TORRINGTON     FAIR      61  28  28 W15G24    30.04S
PINE BLUFFS    FAIR      50  27  40 W9        30.13F

$$




USA.gov is the U.S. government's official web portal to all federal, state and local government web resources and services.